Location: *
(40.7873°S, 98.7174°E)
Time: 01:20:53
(UTC+00:00)

ARIANE 6 FM1 Upper Stage - Pass Details

Date: 17 December 2025
Orbit: 522 x 610 km, 62.0° (Epoch: 20 January)

Event Time Altitude Azimuth Distance (km) Brightness Sun altitude
Rises 17:09:39 0° 204° (SSW) 2,914 7.4 -25.8°
Reaches altitude 10° 17:13:29 10° 172° (S) 1,996 6.5 -25.8°
Maximum altitude 17:15:11 12° 150° (SSE) 1,868 6.0 -25.8°
Drops below altitude 10° 17:16:52 10° 128° (SE) 1,981 5.9 -25.8°
Sets 17:20:37 0° 95° (E) 2,861 6.3 -25.8°
